Regional Weather Roundup
Issued by NWS

Home | Current Version | Previous Version | Graphics & Text | Print | Product List | Glossary On
Versions: 1 2 3 4 5 6 7 8 9 10 11 12 13 14 15 16 17 18 19 20 21 22 23 24 25 26 27 28 29 30 31 32 33 34 35 36 37 38 39 40 41 42 43 44 45 46 47 48 49 50
000
ASUS45 KTFX 031210
RWRMT
MONTANA REGIONAL WEATHER ROUNDUP
NATIONAL WEATHER SERVICE GREAT FALLS MT
600 AM MDT THU SEP 03 2015

NOTE: "FAIR" INDICATES FEW OR NO CLOUDS BELOW 12000 FEET WITH NO
SIGNIFICANT WEATHER AND/OR OBSTRUCTIONS TO VISIBILITY.

MTZ001>007-043-031300-
WEST OF THE DIVIDE

CITY           SKY/WX    TMP DP  RH WIND       PRES   REMARKS
KALISPELL      CLOUDY    54  46  74 SE13      29.89S
MISSOULA       LGT RAIN  50  49  96 NW5       29.94R
BUTTE          CLOUDY    45  38  76 CALM      29.94R
MULLAN PASS    CLOUDY    40  35  83 VRB3      29.94S
DEER LODGE       N/A     48  39  71 N3        29.97S
EUREKA           N/A     43  37  81 E3        29.93R
HAMILTON         N/A     54  45  71 NW12      29.91R
LIBBY            N/A     45  39  81 CALM      29.91S
$$

MTZ008-052>055-031300-
SOUTHWEST MONTANA

CITY           SKY/WX    TMP DP  RH WIND       PRES   REMARKS
BOZEMAN        MOCLDY    51  44  77 CALM      29.86R
DILLON           N/A    N/A N/A N/A MISG      29.86R
W YELLOWSTONE  PTCLDY    39  32  75 CALM      29.97S
$$

MTZ009-010-012-014-046-048-049-054-031300-
EAST SLOPES AND CENTRAL MONTANA

CITY           SKY/WX    TMP DP  RH WIND       PRES   REMARKS
CUT BANK       LGT RAIN  48  47  96 W5        29.93R FOG
GREAT FALLS    PTCLDY    52  36  54 NE8       29.91R
MALMSTROM AFB  MOCLDY    53  38  56 N6        29.91R
HELENA         MOCLDY    58  39  49 W12       29.88R
CONRAD           N/A     54  48  80 NW6       29.96R
$$

MTZ011-013-016-021-045-047-050-051-031300-
NORTH CENTRAL MONTANA

CITY           SKY/WX    TMP DP  RH WIND       PRES   REMARKS
HAVRE          MOCLDY    48  37  65 SW7       29.87R
LEWISTOWN      CLOUDY    52  42  69 E5        29.90S
N BAR RANCH    PTSUNNY   57  37  47 E6G12     29.94R
CHINOOK          N/A     48  37  66 W7        29.86R
FORT BENTON      N/A     52  37  58 CALM      29.90R
$$

MTZ017>020-022>027-061-062-031300-
NORTHEAST MONTANA

CITY           SKY/WX    TMP DP  RH WIND       PRES   REMARKS
GLASGOW        PTCLDY    65  36  34 N17G23    29.74S
JORDAN           N/A     62  39  42 N3        29.77R
SIDNEY         CLEAR     68  45  42 NW18        N/A
WOLF POINT     PTCLDY    70  39  32 N24G35    29.68F
MALTA            N/A     54  36  50 W8        29.79R
PLENTYWOOD       N/A     66  39  37 N22       29.69S
POPLAR           N/A     68  39  34 N14       29.71R
$$

MTZ028>42-056>058-031300-
SOUTHCENTRAL AND SOUTHEAST MONTANA

CITY           SKY/WX    TMP DP  RH WIND       PRES   REMARKS
BAKER          CLEAR     55  48  77 SE3       29.72R
BILLINGS       CLOUDY    60  35  39 W14       29.91R
LIVINGSTON     MOCLDY    57  41  55 E20G30    29.86F
MILES CITY     CLEAR     64  43  46 N9        29.72R
EKALAKA          N/A     71  35  26 W5        29.76R
FORSYTH          N/A     66  37  34 CALM      29.76R
LAUREL           N/A     64  33  31 W12       29.92R
$$

REGIONAL REPORTS...DAKOTAS

CITY           SKY/WX    TMP DP  RH WIND       PRES   REMARKS
WILLISTON      CLEAR     67  51  56 N15       29.68R
MINOT          FOG       66  65  96 E6        29.64F VSB 3/4
DICKINSON      CLEAR     62  56  80 SW10      29.66S
CROSBY           N/A     59  50  72 NW10      29.70R
BISMARCK       CLEAR     67  67 100 E9        29.68S FOG
GRAND FORKS    CLOUDY    71  70  96 SE16      29.77S FOG
FARGO          CLOUDY    73  69  87 SE13G26   29.79S
BUFFALO SD       N/A     62  53  72 E7        29.67R
RAPID CITY     CLEAR     61  47  59 SE3       29.79S
$$

REGIONAL REPORTS...WYOMING/IDAHO/WASHINGTON

CITY           SKY/WX    TMP DP  RH WIND       PRES   REMARKS
GILLETTE       PTCLDY    69  37  30 SW15      29.83R
SHERIDAN       MOCLDY    65  36  34 NW9       29.84S
BUFFALO WY     MOCLDY    67  35  30 NW9       29.90R
CODY           CLOUDY    63  37  39 CALM      29.90R
YELLOWSTONE LA   N/A     46  44  93 CALM      30.09F
IDAHO FALLS    PTCLDY    63  39  41 S17G29    29.87R
SALMON         CLOUDY    55  41  58 E5        29.83S
BOISE          CLOUDY    57  43  59 NW13      29.86S
SPOKANE        PTCLDY    49  39  68 S8        29.89R
$$

REGIONAL REPORTS...ALBERTA

CITY           SKY/WX    TMP DP  RH WIND       PRES   REMARKS
EDMONTON       CLEAR     37  34  87 W7        29.88R
CALGARY        MOCLDY    43  36  75 CALM      29.92R
LETHBRIDGE     CLOUDY    48  36  61 W16       29.89S
MEDICINE HAT   LGT RAIN  54  46  76 W3        29.86R
WATERTON GATE    N/A     43  37  81 E2          N/A
CARDSTON         N/A     46  36  66 SE2         N/A
MILK RIVER       N/A     48  46  93 SW7         N/A
ONEFOUR          N/A     52  36  54 NW10        N/A
$$

REGIONAL REPORTS...SASKATCHEWAN

CITY           SKY/WX    TMP DP  RH WIND       PRES   REMARKS
SWIFT CURRENT  CLEAR     50  45  81 NW7       29.84R
REGINA         PTCLDY    50  45  81 N6        29.75R
SASKATOON      MOCLDY    54  45  71 NW2       29.79R
CYPRESS HILLS    N/A     48  36  61 N6          N/A
VAL MARIE        N/A     46  37  71 NW9         N/A
ROCKGLEN         N/A     57  41  54 N12         N/A
ASSINIBOIA       N/A     39  39 100 SW3         N/A
$$


USA.gov is the U.S. government's official web portal to all federal, state and local government web resources and services.